Regional Weather Roundup
Issued by NWS Wakefield, VA

Home | Current Version | Previous Version | Text Only | Print | Product List | Glossary On
Versions: 1 2 3 4 5 6 7 8 9 10 11 12 13 14 15 16 17 18 19 20 21 22 23 24 25 26 27 28 29 30 31 32 33 34 35 36 37 38 39 40 41 42 43 44 45 46 47 48 49 50
000
ASUS41 KAKQ 290710
RWRAKQ

REGIONAL WEATHER ROUNDUP
NATIONAL WEATHER SERVICE WAKEFIELD VA
300 AM EDT TUE JUL 29 2014

Note: "fair" indicates few or no clouds below 12,000 feet with no
significant weather and/or obstructions to visibility. * = Denotes
station may not report precipitation (e.g., rain,snow,etc.),
thunder or fog.

VAZ042-051-052>054-056-290800-
NORTHERN VIRGINIA

CITY           SKY/WX    TMP DP  RH WIND       PRES   REMARKS
WASH NATIONAL  CLEAR     69  56  62 NW9       29.86R
DULLES         CLEAR     63  55  75 NW7       29.87R
FORT BELVOIR   CLEAR     66  57  71 VRB2      29.87R
QUANTICO       CLEAR     65  56  72 N7        29.87R
FREDERICKSBRG* CLEAR     67  57  70 NW7       29.86S
STAFFORD*      CLEAR     61  61 100 N5        29.91R
WARRENTON      CLEAR     62  59  90 CALM      29.87S
CULPEPER*      CLEAR    N/A N/A N/A N5        29.88S
MANASSAS*      NOT AVBL
LEESBURG*      CLEAR     63  59  88 NW7       29.88S
WINCHESTER     CLEAR     61  52  72 NW8       29.89S
$$

VAZ048-049-060>072-079>083-290800-
CENTRAL AND SOUTH CENTRAL VIRGINIA...AND NORTH CENTRAL NORTH CAROLINA

CITY           SKY/WX    TMP DP  RH WIND       PRES   REMARKS
RICHMOND       CLEAR     69  57  65 NW9       29.86S
CHESTERFIELD*  SUNNY     66  48  52 NW9       29.88R
HANOVER        CLEAR     65  57  75 CALM      29.88S
TAPPAHANNOCK*  CLEAR     66  55  67 NW3       29.86R
CHARLOTTSVILLE CLEAR     63  50  62 NW6       29.89S
ORANGE*        CLEAR     57  54  88 CALM      29.90S
LOUISA*        CLEAR     57  55  94 CALM      29.87S
FARMVILLE*     CLEAR     64  54  68 CALM      29.86F
SOUTH HILL*    CLEAR     64  59  82 NW3       29.91F
ROANOKE RAPIDS NOT AVBL
RALEIGH        PTCLDY    68  56  65 CALM      29.88S
$$

VAZ088>098-290800-
SOUTHEAST VIRGINIA

CITY           SKY/WX    TMP DP  RH WIND       PRES   REMARKS
NORFOLK        CLEAR     73  59  61 N7        29.83S
VIRGINIA BEACH PTCLDY    72  61  68 N10       29.82S
NORFOLK NAVAL  CLEAR     73  59  61 NW12      29.85R
WEST POINT*    CLEAR     69  58  69 NW3       29.86R
NEWPORT NEWS   CLEAR     73  58  59 N7        29.84R
LANGLEY AFB    CLEAR     70  59  68 NW7       29.83S
FORT EUSTIS    CLEAR     71  58  64 N8        29.83R
WILLIAMSBURG*  CLEAR     70  61  73 NW5       29.86R
FRANKLIN*      CLEAR     64  57  77 CALM      29.85R
WAKEFIELD      CLEAR     63  59  87 CALM      29.86R
$$

VAZ020-022-025-037-045-290800-
WESTERN AND SOUTHWEST VIRGINIA

CITY           SKY/WX    TMP DP  RH WIND       PRES   REMARKS
STAUNTON*      CLEAR     55  51  87 CALM      29.94S
HOT SPRINGS VA CLOUDY    51  49  96 NW6       30.00S FOG
LYNCHBURG      CLEAR     60  55  83 N3        29.91F
DANVILLE       CLEAR     66  56  70 NW5       29.90S
MARTINSVILLE   CLEAR     59  56  90 CALM      29.93F
ROANOKE        CLEAR     60  53  77 NW6       29.93F
BLACKSBURG     CLEAR     57  57 100 CALM      29.98F
DUBLIN*        PTCLDY    62  57  85 W7        29.98F
MARION*        CLOUDY   N/A N/A N/A SW7       30.02F
HILLSVILLE*    CLEAR     58  53  83 NW5       29.98F
RICHLANDS*     CLOUDY    62  58  88 W7        30.01F
WISE*          CLOUDY    59  57  94 W3        30.04F
ABINGDON*      MOCLDY    60  58  93 W3        30.01S
$$

MDZ021>025-VAZ099-100-290800-
SOUTHERN MARYLAND AND THE DELMARVA PENINSULA

CITY           SKY/WX    TMP DP  RH WIND       PRES   REMARKS
PATUXENT RIVER CLEAR     68  59  73 NW8       29.83S
BAY BRIDGE APT   N/A     68  59  73 W8        29.84R
LEONARDTOWN    CLEAR     64  57  77 W3        29.85F
DOVER          CLEAR     66  61  85 NW8       29.80R
GEORGETOWN     CLEAR     67  60  78 VRB6      29.82R
EASTON         PTCLDY    70  60  69 N5        29.86S
CAMBRIDGE      MOCLDY    72  59  64 N8        29.82S
SALISBURY      NOT AVBL
OCEAN CITY     CLEAR     66  61  84 NW3       29.82R
WALLOPS ISLAND PTCLDY    69  62  78 CALM      29.82R
ACCOMACK*        N/A     72  61  68 N7        29.81S
$$

NCZ012>017-030>032-290800-
EASTERN NORTH CAROLINA

CITY           SKY/WX    TMP DP  RH WIND       PRES   REMARKS
ELIZABETH CITY CLEAR     69  60  73 NW7       29.84R
AHOSKIE*       CLEAR     62  60  92 CALM      29.86R
EDENTON*       CLEAR     69  61  76 N3        29.84R
CURRITUCK*     CLEAR     68  58  70 NW3       29.84R
KILL DEVIL HLS CLEAR     74  61  64 CALM      29.82R
MANTEO         NOT AVBL
CAPE HATTERAS  MOCLDY    79  62  56 VRB5      29.82S
GOLDSBORO      MOCLDY    72  62  71 N6        29.84R
WASHINGTON     CLEAR     69  61  77 N3        29.85R
GREENVILLE     PTCLDY    68  61  77 CALM      29.88R
NEW BERN       PTCLDY    73  63  70 N6        29.85R
WILMINGTON     MOCLDY    73  68  84 N8        29.83S
$$

VAZ048-290800-
ELSEWHERE

CITY           SKY/WX    TMP DP  RH WIND       PRES   REMARKS
HARRISBURG PA  PTCLDY    64  54  69 N3        29.83S
BALTIMORE      CLEAR     63  57  81 W7        29.84R
ANNAPOLIS      CLEAR     67  58  72 W8        29.84R
ANDREWS AFB    CLEAR     67  57  72 NW13      29.85R
WILMINGTON DE  CLEAR     63  59  87 NW7       29.82S
PHILADELPHIA   CLEAR     68  55  63 NW8       29.81R
WILDWOOD NJ*   CLEAR     68  55  64 NW8       29.81R
ATLANTIC CITY  CLEAR     64  59  83 W6        29.79R
HENDERSON NC   CLEAR     65  55  69 NW3       29.88S
GREENSBORO     CLEAR     64  56  75 NW5       29.90F
ROCKY MOUNT    CLEAR     69  58  67 N5        29.86R
FAYETTEVILLE   CLEAR     74  58  57 N8        29.86R
CHARLOTTE      PTCLDY    68  55  63 N7        29.91F
$$

VAZ100-290800-
MARINE

STATION/POSITION TIME  TEMP    WIND        PRES    WAVE   SWELL
                       AIR SEA DIR/SP/G            HT/PER HT/PER
                 (UTC) (F)     (DEG/KT/KT) (MB)    (FT/S) (FT/S)
44066 TX TWR #4  0700   71 74  310/ 16/ 17 1006.8R   6/ 8   3/ 8
CAPE MAY NJ      0700   70 78  340/ 10/ 17 1008.6R
LEWES DE         0700   71 73  340/ 16/ 19 1009.0R
15NM E FENWICK I 0700   71 73              1009.3R   3/ 7
OCEAN-CITY-INLET 0700   69 68  330/  8/  9 1009.0R
WACHAPREAGUE VA  0700   72 80  340/  5/  9 1009.5S
THOMAS POINT MD  0700   68 78  320/ 11/ 13 1010.8R
GOOSES REEF MD   0700   71     340/ 16/ 19 1010.7R
COVE POINT MD    0700   70     330/ 14/ 19 1009.9F
SOLOMONS ISLAND  0700      80                N/A
BISHOPS HEAD MD  0700   69 74  330/  5/  7 1009.5R
PINEY POINT MD   0700          350/ 18/ 20   N/A
POTOMAC MD       0700   72     340/ 14/ 17 1009.5R
CAMBRIDGE MD     0700   72 79  330/ 13/ 16 1009.6R
LEWISETTA VA     0700   71 78  340/  9/ 15 1010.1R
RAPPAHANNOCK LGT 0700          340/ 21/ 23 1010.1S
STINGRAY PT      0700   72     330/ 14/ 17 1010.6R
YORK RVR RNG VA  0700   72     350/ 15/ 17 1009.5R
YORKTOWN VA      0700   71 80  330/ 13/ 15 1010.1S
JAMESTOWN VA     0700   70     360/  8/ 10   N/A
DOMINION TERM VA 0700   73     360/  9/ 12 1010.5R
KIPTOPEKE VA     0700      81   10/ 10/ 14   N/A
CHES BAY BRIDGE  0700   74 78  330/ 16/ 20 1009.6R
CAPE HENRY VA    0700   74     330/ 16/ 18 1008.8R
WILLOUBY STN VA  0700          350/ 13/ 15 1009.5R
S CRANEY ISL VA  0700          320/ 11/ 15 1010.3R
CAPE HENRY BUOY  0700      77                N/A     3/ 4
1ST LANDING BUOY 0700   75     330/ 16/ 17 1009.7R
CAPE CHARLES BUO 0700      74                N/A     3/ 3
OFFSHORE WE BUOY 0600      78                N/A     3/ 4
64NM E OF VA BCH 0700   78 78  330/ 16/ 17 1008.7F   3/ 4   2/ 8
DUCK PIER NC     0700   74 67  330/  9/ 10 1009.3R
44056 DUCK FRF   0700                        N/A     2/ 8
OREGON INLET NC  0700   75 79  330/  5/  8 1009.8F
HATTERAS NC      0700   80 82  360/ 11/ 14 1010.3R
DIAMOND SHLS NC  0700          VRB  6/ 10  1009.7R   3/ 8   3/ 8
CAPE LOOKOUT NC  0600   77      40/  4/  5 1010.1R
$$



USA.gov is the U.S. government's official web portal to all federal, state and local government web resources and services.